Tracking 33197 objects as of 18-Feb-2026
HD Live streaming from Space Station
objects crossing your sky now

COSMOS 970 DEB

Track COSMOS 970 DEB now!
10-day predictions


NORAD ID: 10884
Int'l Code: 1977-121AF
Perigee: 833.1 km
Apogee: 1,123.3 km
Inclination: 66.4 °
Period: 104.5 minutes
Semi major axis: 7349 km
RCS: 0.1338 m2 (medium)
Launch date: December 21, 1977
Source: Commonwealth of Independent States (former USSR) (CIS)
Launch site: TYURATAM MISSILE AND SPACE COMPLEX (TTMTR)

Note: This is SATELLITE DEBRIS
Your satellite tracking list
Your tracking list is empty




NASA's NSSDC Master Catalog

Two Line Element Set (TLE):
1 10884U 77121AF  26049.15476908  .00000153  00000-0  19847-3 0  9991
2 10884  66.3883 297.5494 0197462 348.0091  11.6311 13.77981953415614
Source of the keplerian elements: AFSPC